User: anonymous
Location: Unspecified
(0.0000°N, 0.0000°E)
Time: 23:06:40
(UTC+02:00)
Language:

Ariane H10 - Orbit

View from above orbital plane
View from above orbital plane
View from above satellite
View from above satellite

Ground track
Ground track

The orbit data is extracted from the following two-line orbital elements,

1 21727U 91067B   14112.63450332  .00000756  00000-0  24364-2 0  2135
2 21727 004.2087 081.2238 7193128 298.0152 199.8278 02.31313624151246
Epoch (UTC): 22 April 2014 15:13:41
Eccentricity: 0.7193128
inclination: 4.2087°
perigee height: 401 km
apogee height: 35144 km
right ascension of ascending node: 81.2238°
argument of perigee: 298.0152°
revolutions per day: 2.31313624
mean anomaly at epoch: 199.8278°
orbit number at epoch: 15124

The dashed part of the orbit path shows where the satellite is in the earth's shadow,  

DLR